STARLINK-38082, 69993

Orbit data source: Space-Track

STARLINK-38082, 69993 is a payload satellite owned by SpaceX/Seattle (US) in SSO that was launched on Sat, 11 Jul 2026 UTC via an FALCON 9 launch vehicle from the Air Force Western Test Range (AFWTR). Payload-class satellites include a variety of spacecraft equipped with specific instruments for various scientific and technological missions. These include communications satellites like Starlink; space stations such as the ISS; scientific satellites like the Hubble; Earth observation satellites from companies like Planet Labs, Umbra, and HawkEye 360; GPS; miniature CubeSats for education and research; and military/defense satellites.

Loading next visibility...
Identifier
69993, 2026-159U
Orbit
SSO
Country
Flag of USUS
Related business
Manufacturer
SpaceX/Seattle
Mission
Operational spacecraft
Bus & Motor
STARLINK V2MO, Unknown motor
Mass
575 kg wet, ~530 kg dry
Launch date (UTC)
2026-07-11 (1 month ago)
Launch vehicle
FALCON 9
Launch site
Air Force Western Test Range (AFWTR)
Object type
Payload
Rocket body
Debris
Shape & HBR
BOX + PAN, 17.7 m
Radar Cross Section
Large (>1 m²)

Expand to show TLE details & history
Last TLE update: 12 hours ago

TLE from 12 hours ago
0 STARLINK-38082
1 69993U 26159U   26228.54041651  .00107383  00000-0  71060-3 0  9994
2 69993  97.2840  68.9373 0001213  77.0682 283.0718 15.75228933  6966
Epoch: 2026-08-16T12:58Z
TLE epoch observation values (Epoch: 2026-08-16T12:58:11.986Z)
Latitude
-0.00009°
Longitude
-90.5481°
Altitude
346.964 km
Speed
7.701 km/s
True Right ascension
04h 35m 44s
True Declination
0° 00' 00"
Sunlit
Object was in daylight at epoch
Visualization orbit readout
Latitude
Unknown
Longitude
Unknown
Altitude
Unknown
Speed
Unknown
Apparent Right ascension
Unknown
Apparent Declination
Unknown
Sunlit
N/A
Visualization observer readout
Local Sidereal Time
16:03:57
Azimuth
Unknown
Elevation
Unknown
Doppler factor
Unknown
Orbital elements
Apogee altitude
341.682 km
Perigee altitude
340.052 km
Semi-major axis
6,719.004 km
Eccentricity
0.00012
Inclination
97.284°
RAAN
68.9373°
Arg. of periapsis
77.0682°
True anomaly
283.05826°
Mean anomaly
283.0718°
Eccentric anomaly
283.06503°
Mean motion
3.94081 °/min
Orbital period
91.35 mins
BSTAR
0.0007106
Loading maneuver chart data...
Computing Atmospheric mass density...
Loading historical data...
Loading historical data...
Loading historical data...
Loading historical data...
Loading historical data...
Loading historical data...
Loading historical data...

Documentation

Showing up to 5 results
|